Location: Avon Lake
(41.5219°N, 93.5010°W)
Time: 05:42:09
(UTC+00:00)

Tiangong - Pass Details

Date: 03 December 2022
Orbit: 382 x 386 km, 41.5° (Epoch: 05 February)

Event Time Altitude Azimuth Distance (km) Brightness Sun altitude
Rises 23:30:23 0° 249° (WSW) 2,245 4.3 -8.6°
Reaches altitude 10° 23:32:28 10° 245° (WSW) 1,394 2.4 -8.9°
Maximum altitude 23:35:34 59° 165° (SSE) 446 -1.8 -9.5°
Enters shadow 23:38:09 14° 87° (E) 1,190 -0.3 -9.9°
